{"data":{"norad_id":59441,"epoch":"2026-05-24T17:54:32.925024Z","epoch_age_seconds":96656,"freshness":"FRESH","line1":"1 59441U 24065W   26144.74621441 -.00001356  00000+0 -33660-4 0  9994","line2":"2 59441  53.1612 288.4197 0001198  87.6772 272.4366 15.30200045120573","mean_motion":15.30200045,"eccentricity":0.0001198,"inclination_deg":53.1612,"raan_deg":288.4197,"arg_perigee_deg":87.6772,"mean_anomaly_deg":272.4366,"bstar":-3.366e-5,"rev_number":12057,"period_min":94.105342939001,"perigee_km":474.39390349562,"apogee_km":476.03596661926,"semimajor_km":6853.3519350574,"source":"CELESTRAK","updated_at":"2026-05-25T13:38:18.947744Z"}}